loading
|

TITAN 3C TRANSTAGE DEB, 1835

Orbit data source: Space-Track

TITAN 3C TRANSTAGE DEB, 1835 is space debris in LEO originally from a launch on Fri, 15 Oct 1965 UTC launched from the Air Force Eastern Test Range (AFETR). Debris objects in space refer to the collection of defunct objects orbiting the Earth. Examples of debris include non-operational satellites, rocket bodies, and fragments generated from explosions, collisions, or faulty payload assembly.

Loading next visibility...
Loading greatness...
TITAN 3C TRANSTAGE DEB details
Identifier
1835, 1965-082EA
Orbit
LEO
Last TLE update14 hours ago
Origin
Flag of USUSAF SSD (US)
ManufacturerUnknown
MissionSpacecraft
Bus & MotorUnknown bus, Unknown motor
MassUnknown
Launch date (UTC)
1965-10-15 (59 years ago)
Launch vehicleUnknown
Launch site
Air Force Eastern Test Range (AFETR)
Object type
Payload
Rocket body
Debris
Shape & HBRUnknown
Radar Cross SectionSmall (<0.1 m²)

Expand to show TLE details & history

TLE from 14 hours ago
0 TITAN 3C TRANSTAGE DEB
1 01835U 65082EA  24278.48547145  .00015552  00000-0  11840-2 0  9993
2 01835  32.3956 340.9861 0012467  42.6841 317.4787 15.01022098153748
Epoch: 2024-10-04T11:39Z
Definitive object data (Epoch: 2024-10-04T11:39:04.733Z)
Latitude-0°
Longitude152.56092°
Altitude556.024 km
Speed7.589 km/s
True Right ascension22h 43m 56s
True Declination0° 00' 00"
Sunlit
Object was in full shadow at TLE epoch
Predictive object data (real-time)
Latitude-23.41182°
Longitude11.70264°
Altitude576.802 km
Speed7.569 km/s
Apparent Right ascension10h 51m 07s
Apparent Declination-40° 10' 43"
Sunlit
Object is in daylight
Predictive observer data (real-time)
Local Sidereal Time19:22:05
Azimuth252.135° W
Elevation-50.596°
Doppler factor1
Orbital elements
Apogee576.021 km
Perigee558.703 km
Semi-major axis6,945.499 km
Eccentricity0.0012467
Inclination32.3956°
RAAN340.9861°
Arg. of periapsis42.6841°
True anomaly317.38203°
Mean anomaly317.4787°
Eccentric anomaly317.43038°
Mean motion3.74963 °/min
BSTAR0.001184
Period96.01 mins
No data available

TITAN 3C TRANSTAGE DEB Visibility forecast

Observer location: 39.9160978°, -105.1181434

TITAN 3C TRANSTAGE DEB is not visible in the next 10 days
Span
Click to sort rows by Start time (UTC) header in descending order
Start Az.
Max El. time (UTC)
Max El. Az.
Max El.
End time (UTC)
End Az.